"Time","Temp","Dewpoint","Humidity","Pressure","Direction","Speed","Gust","Precip","PrecipRate"
"00:04:56","70.2","63.5","79.2","29.80","217","0.7","4.8","0.00","0.00"
"00:09:56","70.3","63.4","78.7","29.80","312","1","4.8","0.00","0.00"
"00:14:59","70.4","63.2","78","29.80","291","1.2","3.6","0.00","0.00"
"00:19:56","70.6","63.3","77.8","29.80","333","2.4","7.2","0.00","0.00"
"00:24:57","70.8","63.3","77.3","29.80","309","1.8","6","0.00","0.00"
"00:29:59","70.8","63.2","77","29.80","344","2.2","7.2","0.00","0.00"
"00:34:59","70.8","63.2","77","29.80","330","0.6","3.5","0.00","0.00"
"00:39:58","70.7","63.1","77.2","29.80","297","1.6","4.8","0.00","0.00"
"00:44:59","70.5","63","77.2","29.81","335","1.4","7.2","0.00","0.00"
"00:49:56","70.5","62.9","77.1","29.81","259","0.9","4.8","0.00","0.00"
"00:54:57","70.4","63.1","77.7","29.81","316","0.3","6","0.00","0.00"
"00:59:59","70.3","63.1","78","29.81","313","2","6","0.00","0.00"
"01:04:59","70.3","63.1","78","29.80","264","0.7","3.5","0.00","0.00"
"01:09:59","70.1","62.9","78","29.80","263","0.8","3.6","0.00","0.00"
"01:14:58","70","62.9","78.2","29.80","268","0.7","4.8","0.00","0.00"
"01:19:59","69.9","63.1","79","29.80","266","1.2","3.6","0.00","0.00"
"01:24:56","69.8","63","79","29.80","289","1.2","4.8","0.00","0.00"
"01:29:58","69.8","63","79","29.80","299","0.9","4.6","0.00","0.00"
"01:34:59","69.8","63","79","29.80","279","0.8","2.4","0.00","0.00"
"01:39:57","69.6","62.8","79","29.80","280","0.4","1.2","0.00","0.00"
"01:44:58","69.5","63","79.7","29.80","270","0.8","3.6","0.00","0.00"
"01:49:56","69.4","63","80","29.80","266","0.6","3.6","0.00","0.00"
"01:54:57","69.3","62.9","80","29.80","267","1.1","3.6","0.00","0.00"
"01:59:59","69.2","62.8","80","29.80","267","0.6","3.5","0.00","0.00"
"02:04:59","69.1","62.7","80","29.80","267","0.5","2.4","0.00","0.00"
"02:09:58","68.9","62.5","80","29.80","267","0.2","2.4","0.00","0.00"
"02:14:56","68.8","62.7","81","29.80","268","0.9","4.8","0.00","0.00"
"02:19:58","68.6","62.5","81","29.80","268","0.1","1.2","0.00","0.00"
"02:24:57","68.5","62.4","81","29.80","268","0","0","0.00","0.00"
"02:29:58","68.3","62.3","81.3","29.80","268","0","0","0.00","0.00"
"02:34:56","67.9","62.2","82","29.80","268","0.1","1.2","0.00","0.00"
"02:39:58","67.5","62.1","82.7","29.80","268","0","0","0.00","0.00"
"02:44:59","67.1","62","83.5","29.80","268","0.1","2.4","0.00","0.00"
"02:49:57","66.8","61.9","84.3","29.80","268","0.1","1.2","0.00","0.00"
"02:54:58","66.4","61.8","85","29.80","268","0","0","0.00","0.00"
"02:59:59","66.1","61.5","85","29.80","268","0.2","1.2","0.00","0.00"
"03:04:57","66.2","61.6","85","29.80","268","0.9","3.6","0.00","0.00"
"03:09:56","66.4","61.8","85","29.80","268","0.3","1.2","0.00","0.00"
"03:14:58","66.5","61.7","84.6","29.80","268","0.2","2.4","0.00","0.00"
"03:19:59","66.4","61.4","84","29.80","268","0","0","0.00","0.00"
"03:24:56","66.4","61.4","84","29.80","268","0","0","0.00","0.00"
"03:29:58","66.2","61.5","84.6","29.80","268","0","0","0.00","0.00"
"03:34:59","66","61.4","85","29.80","268","0","0","0.00","0.00"
"03:39:59","65.8","61.3","85.4","29.80","268","0","0","0.00","0.00"
"03:44:56","65.6","61.3","86","29.81","268","0.4","2.4","0.00","0.00"
"03:49:58","65.4","61.3","86.9","29.81","268","0.1","1.2","0.00","0.00"
"03:54:59","65.2","61.2","87","29.81","268","0.2","1.2","0.00","0.00"
"03:59:59","64.9","61","87.2","29.81","268","0.1","1.2","0.00","0.00"
"04:04:56","64.6","61","88","29.81","268","0","1.2","0.00","0.00"
"04:09:58","64.2","60.7","88.3","29.81","268","0","0","0.00","0.00"
"04:14:56","64","60.7","89.2","29.81","268","0","1.2","0.00","0.00"
"04:19:59","63.9","60.9","90","29.81","268","1","3.6","0.00","0.00"
"04:24:56","64","61","90","29.81","268","0.4","2.4","0.00","0.00"
"04:29:57","64.4","61.1","89.1","29.81","268","1.4","3.6","0.00","0.00"
"04:34:58","64.8","61.4","88.7","29.81","261","1.2","3.6","0.00","0.00"
"04:39:56","65.1","61.5","87.9","29.81","255","1","2.4","0.00","0.00"
"04:44:58","65.5","61.4","86.8","29.81","256","1.3","4.8","0.00","0.00"
"04:49:59","65.8","61.5","86.1","29.81","263","1.5","4.8","0.00","0.00"
"04:54:56","66.1","61.6","85.5","29.81","276","0.7","3.5","0.00","0.00"
"04:59:57","66.1","61.5","85","29.82","276","0.3","2.4","0.00","0.00"
"05:04:58","65.9","61.3","85","29.82","276","0.6","2.4","0.00","0.00"
"05:09:57","65.8","61.6","86.3","29.82","276","0.8","2.4","0.00","0.00"
"05:14:58","65.6","61.6","87","29.82","276","0.8","2.4","0.00","0.00"
"05:19:56","65.4","61.3","86.8","29.82","276","0.6","3.6","0.00","0.00"
"05:24:57","65.2","61.2","87","29.82","276","0.1","1.2","0.00","0.00"
"05:29:59","64.9","61.1","87.6","29.82","276","0.1","1.2","0.00","0.00"
"05:34:58","64.7","61.1","88","29.82","267","0.4","3.6","0.00","0.00"
"05:39:57","64.8","61.2","88","29.82","262","1.4","3.6","0.00","0.00"
"05:44:58","64.9","61.3","88","29.83","264","1.8","3.6","0.00","0.00"
"05:49:56","65.2","61.2","87.2","29.83","264","1.8","3.6","0.00","0.00"
"05:54:57","65.4","61.3","86.9","29.83","264","1.4","2.4","0.00","0.00"
"05:59:59","65.4","61.1","86","29.83","264","0.6","2.4","0.00","0.00"
"06:04:56","65.5","61.2","86","29.83","264","0.1","1.2","0.00","0.00"
"06:09:59","65.5","61.3","86.2","29.83","264","0.1","1.2","0.00","0.00"
"06:14:58","65.5","61.2","86","29.83","264","0.1","4.8","0.00","0.00"
"06:19:59","65.8","61.4","85.7","29.83","264","0.3","4.6","0.00","0.00"
"06:24:56","66","61.4","85","29.83","264","0.2","2.4","0.00","0.00"
"06:29:57","66.2","61.7","85.4","29.83","264","0.2","2.4","0.00","0.00"
"06:34:58","66.2","61.9","86","29.83","264","0.2","2.4","0.00","0.00"
"06:39:56","66.3","61.9","85.8","29.83","264","0.5","2.3","0.00","0.00"
"06:44:57","66.3","62","86","29.84","264","0.2","1.2","0.00","0.00"
"06:49:59","66.3","62","86","29.84","264","0.1","1.2","0.00","0.00"
"06:54:59","66.4","62","85.7","29.84","264","0.1","1.2","0.00","0.00"
"06:59:57","66.7","62.1","85.2","29.85","264","0","0","0.00","0.00"
"07:04:57","66.9","62.2","85","29.85","264","0","0","0.00","0.00"
"07:09:56","67.2","62.5","84.8","29.85","264","0","0","0.00","0.00"
"07:14:58","67.5","62.5","84","29.86","264","0","0","0.00","0.00"
"07:19:59","67.7","62.7","84","29.86","264","0","0","0.00","0.00"
"07:24:56","67.8","63.1","84.8","29.86","264","0","0","0.00","0.00"
"07:29:58","67.9","63.6","86.1","29.86","264","0","0","0.00","0.00"
"07:34:59","67.9","63.9","87","29.86","264","0","1.2","0.00","0.00"
"07:39:57","67.9","63.7","86.2","29.86","264","0.4","2.4","0.00","0.00"
"07:44:58","68.4","63.7","84.8","29.87","264","1.4","3.6","0.00","0.00"
"07:49:59","69.1","64.1","84","29.87","256","2.1","3.6","0.00","0.00"
"07:54:56","69.9","64.4","83","29.87","255","1.3","3.6","0.00","0.00"
"07:59:58","70.5","64.6","81.5","29.87","238","1.7","4.8","0.00","0.00"
"08:04:58","71","64.7","80.6","29.87","236","0.8","4.6","0.00","0.00"
"08:09:57","71.3","64.7","79.7","29.87","224","0.9","4.8","0.00","0.00"
"08:14:59","71.5","64.7","79.2","29.87","219","0.6","2.4","0.00","0.00"
"08:19:56","71.7","64.7","78.8","29.87","219","0.8","3.6","0.00","0.00"
"08:24:57","71.9","64.9","78.7","29.87","217","0.8","3.6","0.00","0.00"
"08:29:58","72.2","64.8","77.4","29.88","252","2.5","6","0.00","0.00"
"08:34:58","72.7","65.2","77.3","29.88","271","2.1","4.8","0.00","0.00"
"08:39:56","73.1","65.3","76.7","29.88","247","1.7","4.8","0.00","0.00"
"08:44:56","73.3","65","75.2","29.88","301","2.8","12","0.00","0.00"
"08:49:56","73.3","64.9","74.9","29.88","304","2.6","7.2","0.00","0.00"
"08:54:57","73.5","64.3","73.1","29.88","307","3.5","7.2","0.00","0.00"
"08:59:58","73.6","64.6","73.5","29.88","299","2.6","7.2","0.00","0.00"
"09:04:59","73.8","65","74.1","29.88","334","4.3","13.2","0.00","0.00"
"09:09:58","74","65","73.5","29.88","308","3.2","12","0.00","0.00"
"09:14:59","74.2","65","73.2","29.88","251","3.5","10.8","0.00","0.00"
"09:19:56","74.1","65.1","73.5","29.88","344","3.9","9.6","0.00","0.00"
"09:24:57","74","65.1","73.6","29.88","301","2.7","9.6","0.00","0.00"
"09:29:57","74","65.4","74.6","29.89","315","1.6","6","0.00","0.00"
"09:34:58","74","65.1","73.9","29.89","291","2.8","8.4","0.00","0.00"
"09:39:56","73.8","64.5","72.8","29.89","244","3.3","8.4","0.00","0.00"
"09:44:56","73.6","64.6","73.5","29.89","277","2.1","4.8","0.00","0.00"
"09:49:57","73.7","65","74.5","29.89","312","2.2","7.2","0.00","0.00"
"09:54:57","73.8","65.1","74.1","29.89","319","3.2","10.8","0.00","0.00"
"09:59:59","74.1","65.1","73.6","29.89","338","3.3","8.1","0.00","0.00"
"10:04:59","74.5","64.8","71.6","29.89","318","4.3","13.2","0.00","0.00"
"10:09:58","74.9","65.6","72.7","29.89","332","2.9","8.4","0.00","0.00"
"10:14:58","75.4","65.2","70.7","29.89","323","5.3","17.3","0.00","0.00"
"10:19:59","75.5","65.5","71.3","29.89","311","3.7","10.4","0.00","0.00"
"10:24:56","75.7","65.4","70.5","29.89","279","4.1","12","0.00","0.00"
"10:29:57","75.7","65.3","70.2","29.89","313","3.2","13.2","0.00","0.00"
"10:34:58","75.9","65.5","70.4","29.89","315","4.6","14.4","0.00","0.00"
"10:39:56","76","65","68.8","29.89","340","4.9","15","0.00","0.00"
"10:44:57","76.1","65.3","69.2","29.90","296","5.4","13.2","0.00","0.00"
"10:49:58","76","64.8","68.2","29.90","286","4","11.5","0.00","0.00"
"10:54:59","75.8","64.7","68.5","29.90","338","3.1","8.4","0.00","0.00"
"10:59:56","75.8","64.6","68.2","29.91","314","4.6","15","0.00","0.00"
"11:04:57","75.4","64.1","67.8","29.91","305","4.3","12","0.00","0.00"
"11:09:56","75.1","64.1","68.8","29.91","314","3.9","10.8","0.00","0.00"
"11:14:57","74.7","63.6","68.5","29.91","333","5.4","13.2","0.00","0.00"
"11:19:58","74.4","63.5","68.9","29.91","305","3.3","16.1","0.00","0.00"
"11:24:59","74.4","63.7","69.2","29.91","294","3.8","12","0.00","0.00"
"11:29:56","74.3","62.8","67.5","29.91","320","5.7","18","0.00","0.00"
"11:34:57","74.2","62.8","67.5","29.91","303","3.4","9.2","0.00","0.00"
"11:39:58","74.4","62.8","67.4","29.91","311","2.8","7.2","0.00","0.00"
"11:44:56","74.5","63","67.4","29.91","264","2.3","4.8","0.00","0.00"
"11:49:57","74.8","63.7","68.4","29.91","320","2.5","8.4","0.00","0.00"
"11:54:57","75.6","64.1","67.7","29.91","320","3","8.4","0.00","0.00"
"11:59:59","76.8","65.1","67.2","29.91","312","4.7","15.6","0.00","0.00"
"12:04:59","76.7","64","64.9","29.91","334","6.4","16.1","0.00","0.00"
"12:09:58","76.1","63.6","65.3","29.91","314","5","13.2","0.00","0.00"
"12:14:59","77.1","64.6","65.3","29.91","305","4.2","13.2","0.00","0.00"
"12:19:59","77.7","65","64.9","29.91","302","4.8","13.2","0.00","0.00"
"12:24:56","77.3","64","63.7","29.91","329","5.3","15","0.00","0.00"
"12:29:57","76.6","63.7","64.3","29.91","310","5.4","20.4","0.00","0.00"
"12:34:58","75.3","63.2","66.1","29.91","330","5.3","20.7","0.00","0.00"
"12:39:56","75.2","63.8","67.9","29.91","356","3.8","10.8","0.00","0.00"
"12:44:58","76.2","64.6","67.6","29.91","324","2.7","13.2","0.00","0.00"
"12:49:59","76.1","64","66.1","29.91","321","4.5","12.7","0.00","0.00"
"12:54:56","76","63.8","66","29.91","336","4.6","15","0.00","0.00"
"12:59:58","75.9","63.7","66","29.92","334","6.2","15","0.00","0.00"
"13:04:58","75.9","63.3","65","29.92","331","5.9","15","0.00","0.00"
"13:09:57","75.4","63.2","65.7","29.92","330","5.1","15","0.00","0.00"
"13:14:57","75.9","63.9","66.4","29.92","316","4.7","17.3","0.00","0.00"
"13:19:57","76.3","63.5","64.6","29.92","335","6.8","17.3","0.00","0.00"
"13:24:58","75.7","63.6","66.2","29.92","335","4.6","17.3","0.00","0.00"
"13:29:59","76.4","64.5","66.7","29.92","295","4.2","13.2","0.00","0.00"
"13:34:56","77.3","64.7","65.3","29.92","301","5.9","16.1","0.00","0.00"
"13:39:58","77.7","64.9","64.8","29.92","284","4.8","10.8","0.00","0.00"
"13:44:58","77.5","64.5","64.3","29.92","323","5.8","13.2","0.00","0.00"
"13:49:59","77.9","65.3","65.3","29.91","272","4.8","13.2","0.00","0.00"
"13:54:59","78.3","65.8","65.4","29.91","315","4.5","12.7","0.00","0.00"
"13:59:56","78.2","64.9","63.8","29.91","288","4.8","13.2","0.00","0.00"
"14:04:57","77.8","64.6","63.9","29.91","306","5.5","14.4","0.00","0.00"
"14:09:56","77.3","64.1","63.8","29.91","314","6.5","17.3","0.00","0.00"
"14:14:57","77.7","64.8","64.5","29.91","330","4.8","20.4","0.00","0.00"
"14:19:58","78","64.8","63.8","29.91","336","6.5","20.7","0.00","0.00"
"14:24:59","78.8","65.4","63.4","29.91","345","5.2","15.6","0.00","0.00"
"14:29:56","78.1","65","64.3","29.91","344","5.6","16.1","0.00","0.00"
"14:34:57","79","65.8","64.1","29.91","332","4.5","14.4","0.00","0.00"
"14:39:58","78.1","64.2","62.5","29.91","322","5.7","15","0.00","0.00"
"14:44:58","77.8","64.9","64.5","29.91","309","4.4","12","0.00","0.00"
"14:49:58","78.1","64.9","63.9","29.91","327","5.1","14.4","0.00","0.00"
"14:54:58","77.9","64.8","64.1","29.91","325","3.9","15","0.00","0.00"
"14:59:59","76.9","64","64.4","29.92","327","4.1","15","0.00","0.00"
"15:04:56","76.8","63.6","63.8","29.92","335","4.3","12","0.00","0.00"
"15:09:59","77.5","64.4","64.2","29.92","295","3.9","12","0.00","0.00"
"15:14:56","77.8","64.7","64.2","29.92","317","2.4","6","0.00","0.00"
"15:19:57","78.6","65","63.1","29.92","313","5","16.1","0.00","0.00"
"15:24:58","77.6","63.7","62.3","29.92","321","4.1","10.8","0.00","0.00"
"15:29:59","76.5","63.7","64.6","29.92","277","3.1","7.2","0.00","0.00"
"15:34:56","76.3","64.1","66","29.92","320","3.5","10.8","0.00","0.00"
"15:39:58","76.8","64.8","66.5","29.92","335","3.6","12","0.00","0.00"
"15:44:59","77.1","64.7","65.5","29.92","260","3","11.5","0.00","0.00"
"15:49:56","77.5","65","65.6","29.92","246","2.6","10.4","0.00","0.00"
"15:54:57","77.9","64.5","63.5","29.92","281","2.9","6.9","0.00","0.00"
"15:59:58","78.2","65.3","64.7","29.92","283","2.5","7.2","0.00","0.00"
"16:04:58","77.6","64.7","64.5","29.91","314","4","10.8","0.00","0.00"
"16:09:57","77.1","64.7","65.5","29.91","307","3.6","15","0.00","0.00"
"16:14:59","78.1","65.7","65.6","29.91","258","2.5","7.2","0.00","0.00"
"16:19:57","78.7","64.7","62.3","29.91","286","4.8","13.2","0.00","0.00"
"16:24:58","77.8","64.4","63.5","29.91","259","2.9","7.2","0.00","0.00"
"16:29:59","78.1","64.8","63.6","29.91","340","5.3","13.2","0.00","0.00"
"16:34:57","78.7","64.8","62.5","29.91","295","4.1","15","0.00","0.00"
"16:39:56","78.7","64.6","62.1","29.91","326","5.8","15.6","0.00","0.00"
"16:44:56","78.2","63.6","60.9","29.91","322","4.5","16.1","0.00","0.00"
"16:49:57","78.4","64.4","62.2","29.91","297","5.4","15","0.00","0.00"
"16:54:59","79","64.7","61.7","29.91","335","3.8","12","0.00","0.00"
"16:59:57","78.9","63.7","59.8","29.91","321","6","15","0.00","0.00"
"17:04:57","78.6","64.2","61.3","29.91","291","3.8","8.4","0.00","0.00"
"17:09:57","78.8","64.2","61","29.91","305","4.1","8.4","0.00","0.00"
"17:14:59","78.4","63.5","60.2","29.91","306","4.6","13.2","0.00","0.00"
"17:19:59","78.3","64.2","61.9","29.91","322","3.1","11.5","0.00","0.00"
"17:24:59","78.7","64.4","61.7","29.91","349","4.2","12","0.00","0.00"
"17:29:57","78.8","64.9","62.4","29.91","344","1.9","6","0.00","0.00"
"17:34:58","78.7","64","60.8","29.91","344","4.8","15","0.00","0.00"
"17:39:59","78.2","63.7","61.1","29.91","322","4.9","15","0.00","0.00"
"17:44:59","77.9","63.9","62.1","29.91","335","5.5","13.2","0.00","0.00"
"17:49:56","77.4","63.7","62.6","29.91","344","3.8","10.4","0.00","0.00"
"17:54:56","77.5","63.8","62.8","29.91","338","4.1","10.8","0.00","0.00"
"17:59:56","77.5","63.7","62.5","29.91","334","4.8","10.8","0.00","0.00"
"18:04:56","77.4","63.6","62.4","29.91","331","4.1","10.8","0.00","0.00"
"18:09:59","77.3","63.2","61.8","29.91","335","4.4","10.4","0.00","0.00"
"18:14:56","77.2","63.2","62","29.91","332","3.5","10.8","0.00","0.00"
"18:19:56","77.3","63.4","62.3","29.91","314","3.5","12","0.00","0.00"
"18:24:56","77.3","63.6","62.8","29.91","253","2.1","4.8","0.00","0.00"
"18:29:57","77.4","63.4","62.2","29.91","335","4.1","10.8","0.00","0.00"
"18:34:57","77","63.1","62.2","29.91","331","4.4","12","0.00","0.00"
"18:39:58","76.9","63.6","63.5","29.91","328","3.1","8.4","0.00","0.00"
"18:44:58","77","63.4","63.1","29.92","326","2.3","7.2","0.00","0.00"
"18:49:59","76.9","63.4","63.3","29.92","333","2.1","6","0.00","0.00"
"18:54:59","76.8","63.5","63.6","29.92","332","2.7","7.2","0.00","0.00"
"18:59:59","76.6","63.6","64.4","29.92","340","1.7","5.8","0.00","0.00"
"19:04:59","76.3","63.4","64.2","29.92","349","1.5","4.8","0.00","0.00"
"19:09:58","76.2","63.8","65.5","29.92","348","0.9","3.6","0.00","0.00"
"19:14:59","76","63.3","64.8","29.93","315","2.3","4.8","0.00","0.00"
"19:19:56","75.9","63.1","64.5","29.93","317","1.8","4.8","0.00","0.00"
"19:24:56","75.8","63.5","65.8","29.93","319","1","4.6","0.00","0.00"
"19:29:56","75.8","63.5","65.8","29.93","326","1.8","4.8","0.00","0.00"
"19:34:56","75.6","63.2","65.5","29.93","335","1.7","4.6","0.00","0.00"
"19:39:58","75.5","63.3","66.1","29.93","334","2","4.8","0.00","0.00"
"19:44:58","75.3","63.5","66.6","29.94","352","2","6","0.00","0.00"
"19:49:59","75.1","63.3","66.8","29.94","352","2.1","4.8","0.00","0.00"
"19:54:59","74.9","63.2","66.9","29.94","350","1.3","4.8","0.00","0.00"
"19:59:56","74.7","63.1","67.3","29.94","350","0.9","3.6","0.00","0.00"
"20:04:56","74.3","63.1","68","29.94","350","1","3.6","0.00","0.00"
"20:09:59","74","62.9","68.4","29.94","348","0.8","3.6","0.00","0.00"
"20:14:56","73.7","62.9","69","29.94","348","0.8","2.4","0.00","0.00"
"20:19:58","73.4","62.6","69","29.94","348","0.6","2.4","0.00","0.00"
"20:24:59","73","62.6","70","29.94","348","0.9","2.4","0.00","0.00"
"20:29:56","72.7","62.6","70.7","29.94","348","0.2","2.3","0.00","0.00"
"20:34:56","72.3","62.6","71.6","29.94","348","0.4","2.4","0.00","0.00"
"20:39:58","71.8","62.6","72.7","29.94","283","0.2","1.2","0.00","0.00"
"20:44:58","71.3","62.5","73.8","29.95","283","0.5","2.4","0.00","0.00"
"20:49:56","70.9","62.4","74.3","29.95","283","0.2","1.2","0.00","0.00"
"20:54:57","70.6","61.9","74","29.95","283","0","1.2","0.00","0.00"
"20:59:58","70.4","62","74.7","29.95","2","0.4","2.4","0.00","0.00"
"21:04:58","70.1","62.2","76","29.95","37","0.3","1.2","0.00","0.00"
"21:09:58","69.8","61.9","76","29.95","37","0","1.2","0.00","0.00"
"21:14:59","69.5","62","76.9","29.96","37","0.3","2.4","0.00","0.00"
"21:19:56","69.1","61.9","77.8","29.96","36","1.4","3.6","0.00","0.00"
"21:24:57","68.9","61.8","78","29.96","27","0.9","3.6","0.00","0.00"
"21:29:58","68.8","61.7","78","29.97","15","0.8","3.6","0.00","0.00"
"21:34:58","68.8","61.7","78","29.97","325","2.3","7.2","0.00","0.00"
"21:39:56","68.9","61.8","78","29.97","304","1.1","3.6","0.00","0.00"
"21:44:56","69.1","61.6","77","29.97","324","1.5","4.8","0.00","0.00"
"21:49:57","69.2","61.8","77.3","29.97","350","1","4.6","0.00","0.00"
"21:54:58","69.1","61.6","77","29.97","348","0.9","4.8","0.00","0.00"
"21:59:59","69","61.6","77.3","29.97","347","1.3","4.8","0.00","0.00"
"22:04:59","68.9","61.4","77","29.97","348","0.7","3.6","0.00","0.00"
"22:09:58","68.9","61.4","77","29.97","348","1.1","3.6","0.00","0.00"
"22:14:59","68.8","61.3","77","29.98","348","0.3","3.5","0.00","0.00"
"22:19:57","68.7","61.2","77","29.98","348","0.6","2.4","0.00","0.00"
"22:24:57","68.6","61.1","77","29.98","348","0.3","2.4","0.00","0.00"
"22:29:59","68.5","61","77","29.99","348","0","1.2","0.00","0.00"
"22:34:59","68.2","61.1","77.9","29.99","348","0.4","1.2","0.00","0.00"
"22:39:57","67.9","60.9","78.4","29.99","348","0.1","1.2","0.00","0.00"
"22:44:58","67.6","60.9","79","29.99","348","0.1","1.2","0.00","0.00"
"22:49:59","67.3","60.7","79.6","29.99","348","0","0","0.00","0.00"
"22:54:59","67","60.6","80","29.99","348","0","0","0.00","0.00"
"22:59:57","66.7","60.6","80.8","30.00","348","0","0","0.00","0.00"
"23:04:57","66.4","60.5","81.4","30.00","348","0.1","1.2","0.00","0.00"
"23:09:56","66","60.3","82","30.00","348","0","1.2","0.00","0.00"
"23:14:58","65.7","60.4","82.9","30.00","348","0","1.2","0.00","0.00"
"23:19:59","65.5","60.2","83","30.00","348","0","1.2","0.00","0.00"
"23:24:56","65.4","60.1","83","30.00","348","0","1.2","0.00","0.00"
"23:29:57","65.3","60","83","30.00","348","0","0","0.00","0.00"
"23:34:57","65.2","60","83.6","30.00","348","0","0","0.00","0.00"
"23:39:56","64.9","60","84.4","30.00","348","0","0","0.00","0.00"
"23:44:57","64.5","59.9","85","30.01","348","0","1.2","0.00","0.00"
"23:49:58","64.3","59.8","85.4","30.01","348","0","1.2","0.00","0.00"
